Volver al catálogo

FENGYUN 1C DEB

ActivoPO
NORAD 31097·DEBRIS·🇨🇳 China

Lanzado May 10, 1999 desde Taiyuan Satellite Launch Center

Loading…

Próximos Pases (próximas 24 horas)

TLE

ActualizadoSource: Space-Track

Época: Sep 14, 2026, 03:45 UTC

1 31097U 99025BGT 26257.15652441  .00005630  00000-0  14047-2 0  9997
2 31097  98.8706  39.0804 0015584 158.9225 254.2511 14.51941799 10280

Sigue FENGYUN 1C DEB en tiempo real con AllMySat

Download on the App Store